Location: Dąbrówka
(52.2799°N, 15.8070°E)
Time: 07:30:07
(UTC+02:00)

ISS - Visible Passes

Search period start: 20 September 2018 00:00
Search period end: 30 September 2018 00:00
Orbit: 402 x 408 km, 51.6° (Epoch: 20 September)

Date Brightness Start Highest point End Pass type
(mag) Time Alt. Az. Time Alt. Az. Time Alt. Az.
22 Sep -1.5 20:27:50 10° S 20:28:33 13° S 20:28:33 13° S visible
23 Sep -1.5 19:37:49 10° SE 19:38:12 10° SE 19:38:36 10° SE visible
23 Sep -1.6 21:10:55 10° SW 21:11:53 17° SW 21:11:53 17° SW visible
24 Sep -2.7 20:19:17 10° SSW 20:22:08 27° SSE 20:22:20 27° SE visible
25 Sep -2.1 19:27:55 10° S 19:30:17 19° SE 19:32:36 10° E visible
25 Sep -2.7 21:03:05 10° WSW 21:05:17 36° SW 21:05:17 36° SW visible
26 Sep -3.3 20:11:12 10° SW 20:14:21 43° SSE 20:15:26 31° ESE visible
26 Sep -1.0 21:47:25 10° W 21:48:06 15° W 21:48:06 15° W visible
27 Sep -2.8 19:19:28 10° SW 19:22:25 31° SSE 19:25:23 10° E visible
27 Sep -3.4 20:55:22 10° WSW 20:58:09 58° SW 20:58:09 58° SW visible
28 Sep -3.8 20:03:21 10° WSW 20:06:38 63° SSE 20:08:07 29° E visible
28 Sep -1.2 21:39:46 10° W 21:40:47 18° W 21:40:47 18° W visible
29 Sep -3.4 19:11:25 10° SW 19:14:37 48° SSE 19:17:48 10° E visible
29 Sep -3.7 20:47:41 10° W 20:50:42 71° WSW 20:50:42 71° WSW visible
